Weather History for KCLM - October, 2012

Change the Weather History Date:

Wednesday, October 17, 2012

  Actual Average Record
Temperature  
Mean Temperature 50 °F -  
Max Temperature 55 °F 56 °F 66 °F (2002)
Min Temperature 45 °F 41 °F 32 °F (2010)
Degree Days  
Heating Degree Days 14    
Moisture  
Dew Point 41 °F    
Average Humidity 73    
Maximum Humidity 90    
Minimum Humidity 57    
Precipitation  
Precipitation 0.00 in - - ()
Sea Level Pressure  
Sea Level Pressure 30.27 in    
Wind  
Wind Speed 7 mph (WSW)    
Max Wind Speed 13 mph    
Max Gust Speed -    
Visibility 10 miles    
Events      
Averages and records for this station are not official NWS values.
T = Trace of Precipitation, MM = Missing Value Source: NWS Daily Summary

Daily Weather History Graph

Daily Weather History Graph

Search for Another Location

Airport or City:

Trip Planner

Search our weather history database for the weather conditions in past years. The results will help you decide how hot, cold, wet, or windy it might be!

Date:

Astronomy

Oct. 17, 2012 Rise Set
Actual Time 7:37 AM PDT 6:20 PM PDT
Civil Twilight 7:05 AM PDT 6:51 PM PDT
Nautical Twilight 6:29 AM PDT 7:27 PM PDT
Astronomical Twilight 5:53 AM PDT 8:03 PM PDT
Moon 10:32 AM PDT (10/17) 7:46 PM PDT (10/17)
Length of Visible Light 11h 46m
Length of Day
10h 43m
Waxing Crescent, 8% of the Moon is Illuminated
Oct 17
Waxing Crescent
Oct 21
First Quarter
Oct 29
Full
Nov 6
Last Quarter
Nov 13
New

Hourly Weather History & Observations

Time (PDT) Temp. Windchill Dew Point Humidity Pressure Visibility Wind Dir Wind Speed Gust Speed Precip Events Conditions
12:53 AM 46.9 °F - 39.0 °F 74% 30.28 in 10.0 mi WSW 11.5 mph - N/A   Clear
1:53 AM 46.9 °F - 37.9 °F 71% 30.29 in 10.0 mi WSW 12.7 mph - N/A   Clear
2:53 AM 46.0 °F 40.2 °F 37.9 °F 73% 30.30 in 10.0 mi WSW 12.7 mph - N/A   Clear
3:53 AM 48.0 °F - 37.0 °F 66% 30.28 in 10.0 mi WSW 11.5 mph - N/A   Mostly Cloudy
4:53 AM 46.9 °F - 37.9 °F 71% 30.28 in 10.0 mi West 9.2 mph - N/A   Overcast
5:53 AM 46.9 °F - 37.9 °F 71% 30.29 in 10.0 mi WSW 11.5 mph - N/A   Partly Cloudy
6:53 AM 46.9 °F - 37.9 °F 71% 30.27 in 10.0 mi West 10.4 mph - N/A   Clear
7:53 AM 46.9 °F - 37.9 °F 71% 30.28 in 10.0 mi WSW 3.5 mph - N/A   Clear
8:53 AM 46.9 °F - 39.9 °F 77% 30.30 in 10.0 mi WNW 5.8 mph - N/A   Clear
9:53 AM 50.0 °F - 39.9 °F 68% 30.32 in 10.0 mi Calm Calm - N/A   Clear
10:53 AM 52.0 °F - 42.1 °F 69% 30.31 in 10.0 mi Calm Calm - N/A   Partly Cloudy
11:53 AM 54.0 °F - 41.0 °F 62% 30.31 in 10.0 mi ENE 3.5 mph - N/A   Scattered Clouds
12:53 PM 55.0 °F - 43.0 °F 64% 30.29 in 10.0 mi East 8.1 mph - N/A   Partly Cloudy
1:53 PM 55.9 °F - 41.0 °F 57% 30.28 in 10.0 mi Variable 5.8 mph - N/A   Overcast
2:53 PM 55.0 °F - 44.1 °F 67% 30.27 in 10.0 mi Variable 3.5 mph - N/A   Overcast
3:53 PM 55.0 °F - 44.1 °F 67% 30.26 in 10.0 mi East 4.6 mph - N/A   Scattered Clouds
4:53 PM 52.0 °F - 43.0 °F 71% 30.26 in 10.0 mi East 4.6 mph - N/A   Overcast
5:53 PM 52.0 °F - 43.0 °F 71% 30.25 in 10.0 mi Calm Calm - N/A   Overcast
6:53 PM 50.0 °F - 44.1 °F 80% 30.25 in 10.0 mi Calm Calm - N/A   Overcast
7:53 PM 48.9 °F - 44.1 °F 83% 30.23 in 10.0 mi Calm Calm - N/A   Overcast
8:53 PM 46.9 °F - 44.1 °F 90% 30.22 in 10.0 mi Calm Calm - N/A   Overcast
9:53 PM 46.9 °F - 44.1 °F 90% 30.23 in 10.0 mi Calm Calm - N/A   Overcast
10:53 PM 46.0 °F - 43.0 °F 89% 30.23 in 10.0 mi Calm Calm - N/A   Overcast
11:53 PM 45.0 °F - 42.1 °F 90% 30.20 in 10.0 mi Calm Calm - N/A   Scattered Clouds